Location: Newark
(37.8333°N, 119.5000°W)
Time: 17:42:27
(UTC+00:00)

Tiros 1 - Visible Passes

Search period start: 24 August 2019 00:00
Search period end: 03 September 2019 00:00
Orbit: 631 x 664 km, 48.4° (Epoch: 24 August)

Date Brightness Start Highest point End Pass type
(mag) Time Alt. Az. Time Alt. Az. Time Alt. Az.
24 Aug 9.3 10:04:28 22° N 10:04:28 22° N 10:08:04 10° NE visible
24 Aug 8.8 11:43:25 10° NW 11:47:38 33° NNE 11:51:54 10° E visible
25 Aug 9.2 10:29:37 21° NNW 10:31:04 24° N 10:34:52 10° ENE visible
25 Aug 7.8 12:09:24 10° NW 12:13:59 55° NNE 12:18:37 10° ESE visible
26 Aug 10.1 09:17:17 13° NE 09:17:17 13° NE 09:18:00 10° NE visible
26 Aug 8.8 10:54:58 18° NNW 10:57:36 31° NNE 11:01:48 10° E visible
26 Aug 7.1 12:35:27 10° WNW 12:40:08 75° SW 12:44:50 10° SE visible
27 Aug 9.7 09:42:54 18° NE 09:42:54 18° NE 09:44:46 10° ENE visible
27 Aug 7.9 11:20:37 17° NW 11:23:58 51° NNE 11:28:33 10° ESE visible
28 Aug 9.1 10:08:54 26° NE 10:08:54 26° NE 10:11:42 10° E visible
28 Aug 7.0 11:46:39 18° WNW 11:50:08 81° SW 11:54:50 10° SE visible
29 Aug 8.4 03:39:49 10° S 03:42:53 20° SE 03:42:53 20° SE visible
29 Aug 9.7 05:20:18 10° WSW 05:20:40 12° WSW 05:20:40 12° WSW visible
29 Aug 8.5 10:35:19 37° ENE 10:35:19 37° ENE 10:38:29 10° ESE visible
29 Aug 7.7 12:13:06 17° W 12:16:03 36° SW 12:20:21 10° SSE visible
30 Aug 7.3 04:04:31 10° SSW 04:08:55 46° SE 04:09:36 42° ESE visible
30 Aug 9.8 05:46:48 10° W 05:47:23 13° W 05:47:23 13° W visible
30 Aug 8.3 11:02:10 34° SE 11:02:10 34° SE 11:04:50 10° SE visible
30 Aug 8.7 12:39:58 13° WSW 12:41:48 15° SW 12:44:30 10° SSW visible
31 Aug 7.1 04:30:18 10° WSW 04:34:55 81° NW 04:35:55 55° NE visible
31 Aug 9.1 11:29:17 17° SSE 11:29:17 17° SSE 11:30:26 10° SSE visible
01 Sep 7.5 03:14:35 10° SSW 03:18:56 42° SE 03:23:18 10° ENE visible
01 Sep 8.1 04:56:44 10° W 05:01:09 43° NNW 05:01:47 40° N visible
02 Sep 7.1 03:40:17 10° SW 03:44:55 87° NW 03:49:34 10° NE visible
02 Sep 9.0 05:23:34 10° WNW 05:27:18 28° NNW 05:27:18 28° NNW visible
